Regional Weather Roundup
Issued by NWS Green Bay, WI

Home | Current Version | Previous Version | Graphics & Text | Print | Product List | Glossary Off
Versions: 1 2 3 4 5 6 7 8 9 10 11 12 13 14 15 16 17 18 19 20 21 22 23 24 25 26 27 28 29 30 31 32 33 34 35 36 37 38 39 40 41 42 43 44 45 46 47 48 49 50

000
ASUS43 KGRB 140611
RWRGRB

NORTH-CENTRAL AND NORTHEAST WISCONSIN REGIONAL WEATHER ROUNDUP
NATIONAL WEATHER SERVICE GREEN BAY WI
1200 AM CST SUN FEB 14 2016

WIZ005-009-010>012-018-019-140700-
NORTH CENTRAL WISCONSIN

CITY           SKY/WX    TMP DP  RH WIND       PRES   REMARKS
IRONWOOD       CLOUDY   -20 N/A N/A CALM      30.29F
MANITOWISH WTR PTCLDY   -20 -25  76 CALM      30.30S
ARBOR VITAE    CLOUDY   -12 -18  75 CALM      30.30F
EAGLE RIVER    CLOUDY   -15 -22  72 CALM      30.30F
LAND O LAKES   CLOUDY   -21 -27  73 CALM      30.31F
RHINELANDER    CLOUDY   -14 -20  74 CALM      30.31S
PHILLIPS       CLOUDY   -17 -22  79 CALM      30.32S
ANTIGO         CLOUDY   -15 -20  78 NE3       30.34S
TOMAHAWK       CLOUDY   -18 -23  75 CALM      30.33F
MERRILL        CLOUDY   N/A N/A N/A CALM      30.37S
$$

WIZ013-073-140700-
NORTHEAST WISCONSIN

CITY           SKY/WX    TMP DP  RH WIND       PRES   REMARKS
IRON MOUNTAIN  CLOUDY   -12 -17  78 CALM      30.37R
MARINETTE      CLOUDY    -6  -9  84 CALM      30.42S
OCONTO         CLOUDY    -9 -13  80 CALM      30.44S
$$

WIZ017-030-035>037-045-140700-
CENTRAL WISCONSIN

CITY           SKY/WX    TMP DP  RH WIND       PRES   REMARKS
MEDFORD        CLOUDY   -15 -20  78 CALM      30.31F
WAUSAU         CLOUDY    -8 -13  78 SE3       30.37R
MOSINEE        CLOUDY    -6 -13  71 CALM      30.37F
MARSHFIELD     CLOUDY    -5 -14  65 CALM      30.34F
WISC RAPIDS    CLOUDY    -8 -15  71 CALM      30.40F
STEVENS POINT  PTCLDY   -13 -18  77 CALM      30.40S
WAUPACA        CLOUDY    -8 -14  73 CALM      30.43S
SHAWANO        PTCLDY    -1  -9  69 CALM      30.44R
CLINTONVILLE   PTCLDY    -6 -13  71 CALM      30.43S
WAUTOMA        CLOUDY   -13 -19  75 CALM      30.44S
$$

WIZ038-039-048-051-140700-
FOX VALLEY

CITY           SKY/WX    TMP DP  RH WIND       PRES   REMARKS
NWS GREEN BAY  CLOUDY    -7 -13  75 CALM      30.45R
APPLETON       CLOUDY     1 -13  51 CALM      30.40S
OSHKOSH        CLOUDY    -4 -12  68 SW5       30.43F WCI -15
FOND DU LAC    PTCLDY    -4 -11  72 S6        30.44S WCI -16
$$

WIZ022-050-052-140700-
EAST CENTRAL WISCONSIN

CITY           SKY/WX    TMP DP  RH WIND       PRES   REMARKS
EPHRAIM        FAIR       3  -6  65 W6        30.41S WCI  -8
STURGEON BAY   CLOUDY     1  -9  60 SW5       30.44S WCI  -8
MANITOWOC      CLOUDY    -1  -8  72 W7        30.46S WCI -14
SHEBOYGAN      CLOUDY    -1  -8  72 CALM      30.45S
$$

LMZ563-521-522-541>543-140700-
LAKESHORE

STATION/POSITION TIME  TEMP    WIND        PRES    VSBY  WAVE
                       AIR SEA DIR/SP/G                  HT/PER
                 (UTC) (F)     (DEG/KT/KT) (MB)    (MI)  (FT/S)
SHEBOYGAN LKSHOR 0600    5     250/  9/ 10 1033.3F
KEWAUNEE LKSHORE 0500    3     290/  5/  6 1029.9F
ALGOMA MARINA    0511             CALM       N/A
SISTER BAY LKSHO 0520    4        CALM       N/A
CHAMBERS ISLAND  0500    1     180/  3/  3 1030.1F
MENOMINEE LKSHOR 0500    3     220/  2     1029.3F
$$



USA.gov is the U.S. government's official web portal to all federal, state and local government web resources and services.